Starlink 32398

operational
NORAD ID: 61624 Int'l Des: 2024-191 Owner: SPXS Country: US Constellation: starlink
LEOCIRCULAR

Starlink 32398について

説明を読み込み中...

リアルタイム位置

3D地球を読み込み中...

次回通過

高度履歴

Altitude vs Time

uPlot chart will show altitude changes over time

軌道要素

1 61624U 24191D 25259.15730663 -.00000800 00000-0 -19555-4 0 9999
2 61624 43.0011 60.1929 0000873 276.4239 83.6513 15.27571683 50846
Epoch: Sep 16, 2025 • Age: 9 hours

現在のステータス

高度 482.8 km
速度 7.63 km/s
衛星直下点 -0.44°S, 136.06°W
打ち上げ日 Oct 23, 2024
運用期間 0.8 years
タイプ internet

技術仕様

分類 Payload
質量 730.00 kg
乾燥質量 700.00 kg
総質量 730.00 kg
長さ 0.30 m
直径 4.10 m
スパン 29.00 m
形状 Box + pan
製造者 SPXS
バスタイプ Starlink V2M
フェーズステータス In Orbit
所有者/国 SPXS/US

大規模コンステレーション

Loading constellations...